Location: Recife
(8.0585°S, 34.8848°W)
Time: 21:57:36
(UTC-03:00)

Hubble Space Telescope - Pass Details

Date: 25 September 2021
Orbit: 535 x 539 km, 28.5° (Epoch: 26 October)

Event Time Altitude Azimuth Distance (km) Brightness Sun altitude
Rises 18:04:57 0° 335° (NNW) 2,658 4.6 -13.2°
Reaches altitude 10° 18:08:22 10° 4° (N) 1,773 3.3 -14.0°
Maximum altitude 18:10:11 13° 31° (NNE) 1,615 2.9 -14.5°
Enters shadow 18:10:32 12° 36° (NE) 1,622 2.8 -14.6°
